CZ-6A DEB, 55238

Orbit data source: Space-Track

CZ-6A DEB, 55238 is space debris in SSO originally from a launch on Fri, 11 Nov 2022 UTC launched from the Taiyaun Space Center, China (TSC). Debris objects in space refer to the collection of defunct objects orbiting the Earth. Examples of debris include non-operational satellites, rocket bodies, and fragments generated from explosions, collisions, or faulty payload assembly.

Loading next visibility...
Identifier
55238, 2022-151XF
Orbit
SSO
Country
Flag of CNCN / PRC
Related business
Manufacturer
SAST
Mission
Spacecraft
Bus & Motor
Unknown
Mass
Unknown
Launch date (UTC)
2022-11-11 (3 years ago)
Launch vehicle
Unknown
Launch site
Taiyaun Space Center, China (TSC)
Object type
Payload
Rocket body
Debris
Shape & HBR
Unknown shape, 0.2 m
Radar Cross Section
Small (<0.1 m²)

Expand to show TLE details & history
Last TLE update: 8 hours ago

TLE from 8 hours ago
0 CZ-6A DEB
1 55238U 22151XF  26130.52286170  .00000196  00000-0  11305-3 0  9996
2 55238  98.7853 148.6844 0026129 293.2062  66.6362 14.19786216180861
Epoch: 2026-05-10T12:32Z
TLE epoch observation values (Epoch: 2026-05-10T12:32:55.250Z)
Latitude
-0.00011°
Longitude
92.12948°
Altitude
821.563 km
Speed
7.446 km/s
True Right ascension
09h 54m 44s
True Declination
0° 00' 00"
Sunlit
Object was in daylight at epoch
Visualization orbit readout
Latitude
Unknown
Longitude
Unknown
Altitude
Unknown
Speed
Unknown
Apparent Right ascension
Unknown
Apparent Declination
Unknown
Sunlit
N/A
Visualization observer readout
Local Sidereal Time
04:34:32
Azimuth
Unknown
Elevation
Unknown
Doppler factor
Unknown
Orbital elements
Apogee altitude
842.055 km
Perigee altitude
804.422 km
Semi-major axis
7,201.375 km
Eccentricity
0.00261
Inclination
98.7853°
RAAN
148.6844°
Arg. of periapsis
293.2062°
True anomaly
66.91142°
Mean anomaly
66.6362°
Eccentric anomaly
66.77378°
Mean motion
3.55157 °/min
Orbital period
101.36 mins
BSTAR
0.00011305
Loading maneuver chart data...
Computing Atmospheric mass density...
Loading historical data...
Loading historical data...
Loading historical data...
Loading historical data...
Loading historical data...
Loading historical data...
Loading historical data...

Documentation

Showing up to 5 results
|